Location: Atbuku
(36.4936°N, 30.4362°E)
Time: 04:08:34
(UTC+00:00)

NOSS 2-3 (D) - Pass Details

Date: 11 December 2025
Orbit: 497 x 1701 km, 63.3° (Epoch: 24 April)

Event Time Altitude Azimuth Distance (km) Brightness Sun altitude
Rises 15:06:48 0° 205° (SSW) 2,765 7.8 -5.1°
Reaches altitude 10° 15:09:07 10° 202° (SSW) 1,785 6.7 -5.5°
Maximum altitude 15:12:56 67° 120° (ESE) 547 3.2 -6.2°
Drops below altitude 10° 15:16:34 10° 37° (NE) 1,706 5.3 -6.9°
Enters shadow 15:17:27 - 36° (NE) 2,077 5.7 -7.1°
